Location: Theydon Bois
(51.6750°N, 0.1050°E)
Time: 05:03:17
(UTC+00:00)

ISS - Visible Passes

Search period start: 08 December 2019 00:00
Search period end: 18 December 2019 00:00
Orbit: 411 x 421 km, 51.6° (Epoch: 08 December)

Date Brightness Start Highest point End Pass type
(mag) Time Alt. Az. Time Alt. Az. Time Alt. Az.
08 Dec -2.4 17:24:29 10° W 17:27:38 37° SSW 17:30:46 10° SE visible
09 Dec -2.8 16:35:58 10° W 16:39:15 50° SSW 16:42:30 10° SE visible
09 Dec -0.8 18:13:34 10° WSW 18:15:25 14° SW 18:17:17 10° S visible
10 Dec -1.1 17:24:36 10° W 17:27:09 20° SW 17:29:43 10° SSE visible
11 Dec -1.5 16:35:53 10° W 16:38:50 28° SSW 16:41:46 10° SSE visible
13 Dec -0.5 16:36:14 10° WSW 16:38:13 15° SW 16:40:13 10° S visible
